LiveATC.Net - Listen to live air traffic control over the Internet!


ICAO: SBRP  IATA: RAO   Airport: Leite Lopes Airport
City: Ribeirao Preto
Country: Brazil   Continent: South America
SBRP METAR Weather: SBRP 192000Z 30004KT CAVOK 28/10 Q1019
SBRP Flight Activity (FlightAware)

SBRP Tower/Center
Feed Status: UP   Listeners: 7
Listen in your browser - HTML5 player (in browser, HTML5)
Click here to listen with your own player (launches your MP3 player)
SBRP Tower/Center Audio Archives
FacilityFrequency
Leite Lopes Tower118.000
Pirassununga Center (North)119.550

NOTICE

Unauthorized use prohibited. See LiveATC.net Terms of Service


Find LiveATC Audio Streams


Airport/ARTCC Code

Frequency Search
(e.g., 124.400, 128.75)
Site-wide search
 


Browse LiveATC Feeds
Top 50 LiveATC Feeds
LiveATC Feed Map
Bad Weather Areas

LiveATC FAQ
Offer LiveATC feed
Contact LiveATC.net
Press Inquiries

LiveATC on iPhone
LiveATC on Android

Windows Phone
Windows 8/10

LiveATC Mobile
(Mobile browser)

ATC Audio Archives
Interesting Recordings

LiveATC Forums


Home Page
About LiveATC.net
Make a Donation
Terms of Use
Privacy Policy

Canadian Air Freqs

AIRMETs/SIGMETs

FAA Airport Status
Nat'l Airspace Status
Arrival Demand Charts


Server Software By:
Icecast.org
Liquidsoap